Year,Month,Day,Hour,Minute,Value (Times are PST for temperature in C)
2021,06,29,00,00,26.80
2021,06,29,00,01,26.80
2021,06,29,00,02,26.80
2021,06,29,00,03,26.80
2021,06,29,00,04,26.80
2021,06,29,00,05,26.80
2021,06,29,00,06,26.80
2021,06,29,00,07,26.80
2021,06,29,00,08,26.80
2021,06,29,00,09,26.80
2021,06,29,00,10,26.80
2021,06,29,00,11,26.80
2021,06,29,00,12,26.80
2021,06,29,00,13,26.70
2021,06,29,00,14,26.70
2021,06,29,00,15,26.70
2021,06,29,00,16,26.70
2021,06,29,00,17,26.60
2021,06,29,00,18,26.60
2021,06,29,00,19,26.60
2021,06,29,00,20,26.60
2021,06,29,00,21,26.50
2021,06,29,00,22,26.50
2021,06,29,00,23,26.50
2021,06,29,00,24,26.50
2021,06,29,00,25,26.60
2021,06,29,00,26,26.60
2021,06,29,00,27,26.70
2021,06,29,00,28,26.70
2021,06,29,00,29,26.80
2021,06,29,00,30,26.80
2021,06,29,00,31,26.80
2021,06,29,00,32,26.80
2021,06,29,00,33,26.80
2021,06,29,00,34,26.80
2021,06,29,00,35,26.80
2021,06,29,00,36,26.80
2021,06,29,00,37,26.70
2021,06,29,00,38,26.70
2021,06,29,00,39,26.70
2021,06,29,00,40,26.70
2021,06,29,00,41,26.70
2021,06,29,00,42,26.70
2021,06,29,00,43,26.60
2021,06,29,00,44,26.60
2021,06,29,00,45,26.60
2021,06,29,00,46,26.60
2021,06,29,00,47,26.60
2021,06,29,00,48,26.50
2021,06,29,00,49,26.50
2021,06,29,00,50,26.50
2021,06,29,00,51,26.40
2021,06,29,00,52,26.40
2021,06,29,00,53,26.40
2021,06,29,00,54,26.30
2021,06,29,00,55,26.30
2021,06,29,00,56,26.30
2021,06,29,00,57,26.20
2021,06,29,00,58,26.20
2021,06,29,00,59,26.20
2021,06,29,01,00,26.20
2021,06,29,01,01,26.20
2021,06,29,01,02,26.10
2021,06,29,01,03,26.10
2021,06,29,01,04,26.10
2021,06,29,01,05,26.10
2021,06,29,01,06,26.10
2021,06,29,01,07,26.10
2021,06,29,01,08,26.10
2021,06,29,01,09,26.10
2021,06,29,01,10,26.00
2021,06,29,01,11,26.00
2021,06,29,01,12,26.00
2021,06,29,01,13,26.00
2021,06,29,01,14,26.00
2021,06,29,01,15,26.00
2021,06,29,01,16,26.00
2021,06,29,01,17,26.00
2021,06,29,01,18,26.00
2021,06,29,01,19,26.00
2021,06,29,01,20,26.00
2021,06,29,01,21,26.00
2021,06,29,01,22,26.00
2021,06,29,01,23,26.00
2021,06,29,01,24,26.00
2021,06,29,01,25,26.10
2021,06,29,01,26,26.10
2021,06,29,01,27,26.10
2021,06,29,01,28,26.20
2021,06,29,01,29,26.20
2021,06,29,01,30,26.20
2021,06,29,01,31,26.20
2021,06,29,01,32,26.20
2021,06,29,01,33,26.20
2021,06,29,01,34,26.20
2021,06,29,01,35,26.20
2021,06,29,01,36,26.20
2021,06,29,01,37,26.20
2021,06,29,01,38,26.20
2021,06,29,01,39,26.20
2021,06,29,01,40,26.20
2021,06,29,01,41,26.20
2021,06,29,01,42,26.20
2021,06,29,01,43,26.20
2021,06,29,01,44,26.20
2021,06,29,01,45,26.20
2021,06,29,01,46,26.20
2021,06,29,01,47,26.10
2021,06,29,01,48,26.10
2021,06,29,01,49,26.10
2021,06,29,01,50,26.10
2021,06,29,01,51,26.10
2021,06,29,01,52,26.00
2021,06,29,01,53,26.00
2021,06,29,01,54,26.00
2021,06,29,01,55,25.90
2021,06,29,01,56,25.90
2021,06,29,01,57,25.90
2021,06,29,01,58,25.90
2021,06,29,01,59,25.80
2021,06,29,02,00,25.80
2021,06,29,02,01,25.80
2021,06,29,02,02,25.70
2021,06,29,02,03,25.70
2021,06,29,02,04,25.70
2021,06,29,02,05,25.70
2021,06,29,02,06,25.70
2021,06,29,02,07,25.70
2021,06,29,02,08,25.70
2021,06,29,02,09,25.70
2021,06,29,02,10,25.70
2021,06,29,02,11,25.60
2021,06,29,02,12,25.60
2021,06,29,02,13,25.60
2021,06,29,02,14,25.60
2021,06,29,02,15,25.60
2021,06,29,02,16,25.50
2021,06,29,02,17,25.50
2021,06,29,02,18,25.50
2021,06,29,02,19,25.40
2021,06,29,02,20,25.40
2021,06,29,02,21,25.40
2021,06,29,02,22,25.40
2021,06,29,02,23,25.40
2021,06,29,02,24,25.30
2021,06,29,02,25,25.30
2021,06,29,02,26,25.30
2021,06,29,02,27,25.30
2021,06,29,02,28,25.20
2021,06,29,02,29,25.20
2021,06,29,02,30,25.20
2021,06,29,02,31,25.20
2021,06,29,02,32,25.10
2021,06,29,02,33,25.10
2021,06,29,02,34,25.10
2021,06,29,02,35,25.10
2021,06,29,02,36,25.10
2021,06,29,02,37,25.00
2021,06,29,02,38,25.00
2021,06,29,02,39,25.00
2021,06,29,02,40,25.00
2021,06,29,02,41,25.00
2021,06,29,02,42,25.00
2021,06,29,02,43,24.90
2021,06,29,02,44,24.90
2021,06,29,02,45,24.90
2021,06,29,02,46,24.90
2021,06,29,02,47,24.90
2021,06,29,02,48,24.90
2021,06,29,02,49,24.90
2021,06,29,02,50,24.90
2021,06,29,02,51,24.90
2021,06,29,02,52,24.90
2021,06,29,02,53,24.90
2021,06,29,02,54,24.90
2021,06,29,02,55,25.00
2021,06,29,02,56,25.00
2021,06,29,02,57,25.10
2021,06,29,02,58,25.10
2021,06,29,02,59,25.10
2021,06,29,03,00,25.20
2021,06,29,03,01,25.20
2021,06,29,03,02,25.30
2021,06,29,03,03,25.30
2021,06,29,03,04,25.30
2021,06,29,03,05,25.30
2021,06,29,03,06,25.30
2021,06,29,03,07,25.30
2021,06,29,03,08,25.40
2021,06,29,03,09,25.40
2021,06,29,03,10,25.40
2021,06,29,03,11,25.40
2021,06,29,03,12,25.40
2021,06,29,03,13,25.40
2021,06,29,03,14,25.40
2021,06,29,03,15,25.40
2021,06,29,03,16,25.40
2021,06,29,03,17,25.40
2021,06,29,03,18,25.30
2021,06,29,03,19,25.30
2021,06,29,03,20,25.30
2021,06,29,03,21,25.30
2021,06,29,03,22,25.30
2021,06,29,03,23,25.30
2021,06,29,03,24,25.20
2021,06,29,03,25,25.20
2021,06,29,03,26,25.20
2021,06,29,03,27,25.20
2021,06,29,03,28,25.10
2021,06,29,03,29,25.10
2021,06,29,03,30,25.10
2021,06,29,03,31,25.00
2021,06,29,03,32,25.00
2021,06,29,03,33,24.90
2021,06,29,03,34,24.90
2021,06,29,03,35,24.90
2021,06,29,03,36,24.90
2021,06,29,03,37,24.80
2021,06,29,03,38,24.80
2021,06,29,03,39,24.80
2021,06,29,03,40,24.70
2021,06,29,03,41,24.70
2021,06,29,03,42,24.70
2021,06,29,03,43,24.70
2021,06,29,03,44,24.70
2021,06,29,03,45,24.80
2021,06,29,03,46,24.80
2021,06,29,03,47,24.80
2021,06,29,03,48,24.80
2021,06,29,03,49,24.80
2021,06,29,03,50,24.80
2021,06,29,03,51,24.80
2021,06,29,03,52,24.80
2021,06,29,03,53,24.70
2021,06,29,03,54,24.70
2021,06,29,03,55,24.70
2021,06,29,03,56,24.70
2021,06,29,03,57,24.60
2021,06,29,03,58,24.60
2021,06,29,03,59,24.70
2021,06,29,04,00,24.70
2021,06,29,04,01,24.70
2021,06,29,04,02,24.80
2021,06,29,04,03,24.80
2021,06,29,04,04,24.80
2021,06,29,04,05,24.70
2021,06,29,04,06,24.70
2021,06,29,04,07,24.70
2021,06,29,04,08,24.70
2021,06,29,04,09,24.60
2021,06,29,04,10,24.50
2021,06,29,04,11,24.40
2021,06,29,04,12,24.30
2021,06,29,04,13,24.20
2021,06,29,04,14,24.10
2021,06,29,04,15,24.10
2021,06,29,04,16,24.00
2021,06,29,04,17,24.00
2021,06,29,04,18,23.90
2021,06,29,04,19,23.90
2021,06,29,04,20,23.80
2021,06,29,04,21,23.80
2021,06,29,04,22,23.80
2021,06,29,04,23,23.70
2021,06,29,04,24,23.70
2021,06,29,04,25,23.70
2021,06,29,04,26,23.70
2021,06,29,04,27,23.70
2021,06,29,04,28,23.60
2021,06,29,04,29,23.60
2021,06,29,04,30,23.60
2021,06,29,04,31,23.50
2021,06,29,04,32,23.50
2021,06,29,04,33,23.40
2021,06,29,04,34,23.40
2021,06,29,04,35,23.40
2021,06,29,04,36,23.40
2021,06,29,04,37,23.40
2021,06,29,04,38,23.30
2021,06,29,04,39,23.30
2021,06,29,04,40,23.30
2021,06,29,04,41,23.30
2021,06,29,04,42,23.20
2021,06,29,04,43,23.20
2021,06,29,04,44,23.20
2021,06,29,04,45,23.10
2021,06,29,04,46,23.10
2021,06,29,04,47,23.10
2021,06,29,04,48,23.10
2021,06,29,04,49,23.10
2021,06,29,04,50,23.10
2021,06,29,04,51,23.10
2021,06,29,04,52,23.10
2021,06,29,04,53,23.10
2021,06,29,04,54,23.10
2021,06,29,04,55,23.10
2021,06,29,04,56,23.10
2021,06,29,04,57,23.10
2021,06,29,04,58,23.10
2021,06,29,04,59,23.10
2021,06,29,05,00,23.10
2021,06,29,05,01,23.10
2021,06,29,05,02,23.10
2021,06,29,05,03,23.10
2021,06,29,05,04,23.10
2021,06,29,05,05,23.00
2021,06,29,05,06,23.00
2021,06,29,05,07,23.00
2021,06,29,05,08,23.00
2021,06,29,05,09,23.00
2021,06,29,05,10,23.00
2021,06,29,05,11,23.00
2021,06,29,05,12,23.00
2021,06,29,05,13,23.10
2021,06,29,05,14,23.10
2021,06,29,05,15,23.10
2021,06,29,05,16,23.20
2021,06,29,05,17,23.20
2021,06,29,05,18,23.20
2021,06,29,05,19,23.10
2021,06,29,05,20,23.10
2021,06,29,05,21,23.10
2021,06,29,05,22,23.10
2021,06,29,05,23,23.00
2021,06,29,05,24,23.00
2021,06,29,05,25,23.00
2021,06,29,05,26,23.00
2021,06,29,05,27,23.00
2021,06,29,05,28,23.00
2021,06,29,05,29,23.00
2021,06,29,05,30,23.00
2021,06,29,05,31,23.00
2021,06,29,05,32,23.00
2021,06,29,05,33,22.90
2021,06,29,05,34,22.90
2021,06,29,05,35,22.80
2021,06,29,05,36,22.80
2021,06,29,05,37,22.70
2021,06,29,05,38,22.70
2021,06,29,05,39,22.70
2021,06,29,05,40,22.70
2021,06,29,05,41,22.70
2021,06,29,05,42,22.70
2021,06,29,05,43,22.70
2021,06,29,05,44,22.70
2021,06,29,05,45,22.70
2021,06,29,05,46,22.70
2021,06,29,05,47,22.70
2021,06,29,05,48,22.70
2021,06,29,05,49,22.80
2021,06,29,05,50,22.80
2021,06,29,05,51,22.70
2021,06,29,05,52,22.60
2021,06,29,05,53,22.60
2021,06,29,05,54,22.50
2021,06,29,05,55,22.40
2021,06,29,05,56,22.40
2021,06,29,05,57,22.40
2021,06,29,05,58,22.30
2021,06,29,05,59,22.30
2021,06,29,06,00,22.20
2021,06,29,06,01,22.10
2021,06,29,06,02,22.00
2021,06,29,06,03,21.90
2021,06,29,06,04,21.80
2021,06,29,06,05,21.70
2021,06,29,06,06,21.50
2021,06,29,06,07,21.30
2021,06,29,06,08,21.10
2021,06,29,06,09,21.00
2021,06,29,06,10,20.80
2021,06,29,06,11,20.70
2021,06,29,06,12,20.50
2021,06,29,06,13,20.30
2021,06,29,06,14,20.20
2021,06,29,06,15,20.10
2021,06,29,06,16,19.90
2021,06,29,06,17,19.90
2021,06,29,06,18,19.80
2021,06,29,06,19,19.70
2021,06,29,06,20,19.70
2021,06,29,06,21,19.60
2021,06,29,06,22,19.50
2021,06,29,06,23,19.50
2021,06,29,06,24,19.40
2021,06,29,06,25,19.40
2021,06,29,06,26,19.40
2021,06,29,06,27,19.40
2021,06,29,06,28,19.40
2021,06,29,06,29,19.40
2021,06,29,06,30,19.40
2021,06,29,06,31,19.40
2021,06,29,06,32,19.40
2021,06,29,06,33,19.40
2021,06,29,06,34,19.50
2021,06,29,06,35,19.50
2021,06,29,06,36,19.50
2021,06,29,06,37,19.50
2021,06,29,06,38,19.50
2021,06,29,06,39,19.50
2021,06,29,06,40,19.50
2021,06,29,06,41,19.50
2021,06,29,06,42,19.50
2021,06,29,06,43,19.40
2021,06,29,06,44,19.40
2021,06,29,06,45,19.30
2021,06,29,06,46,19.30
2021,06,29,06,47,19.30
2021,06,29,06,48,19.30
2021,06,29,06,49,19.30
2021,06,29,06,50,19.40
2021,06,29,06,51,19.40
2021,06,29,06,52,19.50
2021,06,29,06,53,19.60
2021,06,29,06,54,19.60
2021,06,29,06,55,19.60
2021,06,29,06,56,19.60
2021,06,29,06,57,19.70
2021,06,29,06,58,19.80
2021,06,29,06,59,19.80
2021,06,29,07,00,19.90
2021,06,29,07,01,20.00
2021,06,29,07,02,20.10
2021,06,29,07,03,20.10
2021,06,29,07,04,20.20
2021,06,29,07,05,20.30
2021,06,29,07,06,20.40
2021,06,29,07,07,20.50
2021,06,29,07,08,20.50
2021,06,29,07,09,20.60
2021,06,29,07,10,20.60
2021,06,29,07,11,20.70
2021,06,29,07,12,20.80
2021,06,29,07,13,20.80
2021,06,29,07,14,20.80
2021,06,29,07,15,20.80
2021,06,29,07,16,20.80
2021,06,29,07,17,20.80
2021,06,29,07,18,20.70
2021,06,29,07,19,20.70
2021,06,29,07,20,20.70
2021,06,29,07,21,20.70
2021,06,29,07,22,20.80
2021,06,29,07,23,20.80
2021,06,29,07,24,20.90
2021,06,29,07,25,20.90
2021,06,29,07,26,21.00
2021,06,29,07,27,21.10
2021,06,29,07,28,21.10
2021,06,29,07,29,21.10
2021,06,29,07,30,21.10
2021,06,29,07,31,21.10
2021,06,29,07,32,21.00
2021,06,29,07,33,20.90
2021,06,29,07,34,20.80
2021,06,29,07,35,20.70
2021,06,29,07,36,20.70
2021,06,29,07,37,20.70
2021,06,29,07,38,20.70
2021,06,29,07,39,20.70
2021,06,29,07,40,20.70
2021,06,29,07,41,20.70
2021,06,29,07,42,20.60
2021,06,29,07,43,20.60
2021,06,29,07,44,20.60
2021,06,29,07,45,20.60
2021,06,29,07,46,20.60
2021,06,29,07,47,20.60
2021,06,29,07,48,20.60
2021,06,29,07,49,20.60
2021,06,29,07,50,20.60
2021,06,29,07,51,20.60
2021,06,29,07,52,20.70
2021,06,29,07,53,20.80
2021,06,29,07,54,20.80
2021,06,29,07,55,20.80
2021,06,29,07,56,20.90
2021,06,29,07,57,21.00
2021,06,29,07,58,21.10
2021,06,29,07,59,21.10
2021,06,29,08,00,21.20
2021,06,29,08,01,21.20
2021,06,29,08,02,21.20
2021,06,29,08,03,21.30
2021,06,29,08,04,21.30
2021,06,29,08,05,21.40
2021,06,29,08,06,21.50
2021,06,29,08,07,21.60
2021,06,29,08,08,21.70
2021,06,29,08,09,21.80
2021,06,29,08,10,21.90
2021,06,29,08,11,22.00
2021,06,29,08,12,22.00
2021,06,29,08,13,22.10
2021,06,29,08,14,22.20
2021,06,29,08,15,22.30
2021,06,29,08,16,22.30
2021,06,29,08,17,22.40
2021,06,29,08,18,22.50
2021,06,29,08,19,22.50
2021,06,29,08,20,22.60
2021,06,29,08,21,22.60
2021,06,29,08,22,22.60
2021,06,29,08,23,22.60
2021,06,29,08,24,22.60
2021,06,29,08,25,22.60
2021,06,29,08,26,22.60
2021,06,29,08,27,22.60
2021,06,29,08,28,22.60
2021,06,29,08,29,22.70
2021,06,29,08,30,22.80
2021,06,29,08,31,22.90
2021,06,29,08,32,22.90
2021,06,29,08,33,22.80
2021,06,29,08,34,22.60
2021,06,29,08,35,22.40
2021,06,29,08,36,22.30
2021,06,29,08,37,22.20
2021,06,29,08,38,22.20
2021,06,29,08,39,22.20
2021,06,29,08,40,22.30
2021,06,29,08,41,22.30
2021,06,29,08,42,22.30
2021,06,29,08,43,22.20
2021,06,29,08,44,22.20
2021,06,29,08,45,22.20
2021,06,29,08,46,22.20
2021,06,29,08,47,22.20
2021,06,29,08,48,22.30
2021,06,29,08,49,22.40
2021,06,29,08,50,22.50
2021,06,29,08,51,22.60
2021,06,29,08,52,22.60
2021,06,29,08,53,22.70
2021,06,29,08,54,22.70
2021,06,29,08,55,22.70
2021,06,29,08,56,22.70
2021,06,29,08,57,22.80
2021,06,29,08,58,22.90
2021,06,29,08,59,23.00
2021,06,29,09,00,23.10
2021,06,29,09,01,23.20
2021,06,29,09,02,23.30
2021,06,29,09,03,23.30
2021,06,29,09,04,23.40
2021,06,29,09,05,23.40
2021,06,29,09,06,23.40
2021,06,29,09,07,23.30
2021,06,29,09,08,23.20
2021,06,29,09,09,23.10
2021,06,29,09,10,23.10
2021,06,29,09,11,23.20
2021,06,29,09,12,23.30
2021,06,29,09,13,23.40
2021,06,29,09,14,23.40
2021,06,29,09,15,23.40
2021,06,29,09,16,23.40
2021,06,29,09,17,23.40
2021,06,29,09,18,23.50
2021,06,29,09,19,23.60
2021,06,29,09,20,23.60
2021,06,29,09,21,23.50
2021,06,29,09,22,23.40
2021,06,29,09,23,23.30
2021,06,29,09,24,23.30
2021,06,29,09,25,23.30
2021,06,29,09,26,23.30
2021,06,29,09,27,23.20
2021,06,29,09,28,23.20
2021,06,29,09,29,23.20
2021,06,29,09,30,23.30
2021,06,29,09,31,23.30
2021,06,29,09,32,23.30
2021,06,29,09,33,23.20
2021,06,29,09,34,23.20
2021,06,29,09,35,23.20
2021,06,29,09,36,23.20
2021,06,29,09,37,23.30
2021,06,29,09,38,23.20
2021,06,29,09,39,23.00
2021,06,29,09,40,22.90
2021,06,29,09,41,22.90
2021,06,29,09,42,22.80
2021,06,29,09,43,22.90
2021,06,29,09,44,23.00
2021,06,29,09,45,23.10
2021,06,29,09,46,23.10
2021,06,29,09,47,23.10
2021,06,29,09,48,22.90
2021,06,29,09,49,22.70
2021,06,29,09,50,22.50
2021,06,29,09,51,22.40
2021,06,29,09,52,22.30
2021,06,29,09,53,22.20
2021,06,29,09,54,22.20
2021,06,29,09,55,22.20
2021,06,29,09,56,22.20
2021,06,29,09,57,22.20
2021,06,29,09,58,22.20
2021,06,29,09,59,22.20
2021,06,29,10,00,22.30
2021,06,29,10,01,22.30
2021,06,29,10,02,22.30
2021,06,29,10,03,22.50
2021,06,29,10,04,22.60
2021,06,29,10,05,22.70
2021,06,29,10,06,22.70
2021,06,29,10,07,22.70
2021,06,29,10,08,22.70
2021,06,29,10,09,22.70
2021,06,29,10,10,22.70
2021,06,29,10,11,22.80
2021,06,29,10,12,22.80
2021,06,29,10,13,22.80
2021,06,29,10,14,22.90
2021,06,29,10,15,23.10
2021,06,29,10,16,23.20
2021,06,29,10,17,23.40
2021,06,29,10,18,23.40
2021,06,29,10,19,23.50
2021,06,29,10,20,23.60
2021,06,29,10,21,23.70
2021,06,29,10,22,23.70
2021,06,29,10,23,23.70
2021,06,29,10,24,23.70
2021,06,29,10,25,23.70
2021,06,29,10,26,23.70
2021,06,29,10,27,23.70
2021,06,29,10,28,23.80
2021,06,29,10,29,23.80
2021,06,29,10,30,23.80
2021,06,29,10,31,23.70
2021,06,29,10,32,23.80
2021,06,29,10,33,23.90
2021,06,29,10,34,23.90
2021,06,29,10,35,23.70
2021,06,29,10,36,23.60
2021,06,29,10,37,23.60
2021,06,29,10,38,23.70
2021,06,29,10,39,23.70
2021,06,29,10,40,23.70
2021,06,29,10,41,23.60
2021,06,29,10,42,23.60
2021,06,29,10,43,23.60
2021,06,29,10,44,23.60
2021,06,29,10,45,23.60
2021,06,29,10,46,23.60
2021,06,29,10,47,23.70
2021,06,29,10,48,23.70
2021,06,29,10,49,23.70
2021,06,29,10,50,23.70
2021,06,29,10,51,23.70
2021,06,29,10,52,23.60
2021,06,29,10,53,23.50
2021,06,29,10,54,23.40
2021,06,29,10,55,23.50
2021,06,29,10,56,23.60
2021,06,29,10,57,23.80
2021,06,29,10,58,23.80
2021,06,29,10,59,23.90
2021,06,29,11,00,23.90
2021,06,29,11,01,23.90
2021,06,29,11,02,23.90
2021,06,29,11,03,23.90
2021,06,29,11,04,23.90
2021,06,29,11,05,24.00
2021,06,29,11,06,24.10
2021,06,29,11,07,24.10
2021,06,29,11,08,24.00
2021,06,29,11,09,23.90
2021,06,29,11,10,23.90
2021,06,29,11,11,23.90
2021,06,29,11,12,23.90
2021,06,29,11,13,23.90
2021,06,29,11,14,23.80
2021,06,29,11,15,23.80
2021,06,29,11,16,23.70
2021,06,29,11,17,23.60
2021,06,29,11,18,23.60
2021,06,29,11,19,23.60
2021,06,29,11,20,23.60
2021,06,29,11,21,23.60
2021,06,29,11,22,23.70
2021,06,29,11,23,23.80
2021,06,29,11,24,24.00
2021,06,29,11,25,24.00
2021,06,29,11,26,24.10
2021,06,29,11,27,24.10
2021,06,29,11,28,24.20
2021,06,29,11,29,24.30
2021,06,29,11,30,24.20
2021,06,29,11,31,24.00
2021,06,29,11,32,24.00
2021,06,29,11,33,23.90
2021,06,29,11,34,23.90
2021,06,29,11,35,23.90
2021,06,29,11,36,24.00
2021,06,29,11,37,24.00
2021,06,29,11,38,24.10
2021,06,29,11,39,24.10
2021,06,29,11,40,24.20
2021,06,29,11,41,24.20
2021,06,29,11,42,24.30
2021,06,29,11,43,24.40
2021,06,29,11,44,24.60
2021,06,29,11,45,24.60
2021,06,29,11,46,24.60
2021,06,29,11,47,24.70
2021,06,29,11,48,24.80
2021,06,29,11,49,25.00
2021,06,29,11,50,25.10
2021,06,29,11,51,25.20
2021,06,29,11,52,25.30
2021,06,29,11,53,25.50
2021,06,29,11,54,25.70
2021,06,29,11,55,25.90
2021,06,29,11,56,26.00
2021,06,29,11,57,26.10
2021,06,29,11,58,26.10
2021,06,29,11,59,26.10
2021,06,29,12,00,26.10
2021,06,29,12,01,26.10
2021,06,29,12,02,26.00
2021,06,29,12,03,26.10
2021,06,29,12,04,26.10
2021,06,29,12,05,26.10
2021,06,29,12,06,26.10
2021,06,29,12,07,26.10
2021,06,29,12,08,26.20
2021,06,29,12,09,26.30
2021,06,29,12,10,26.40
2021,06,29,12,11,26.40
2021,06,29,12,12,26.40
2021,06,29,12,13,26.40
2021,06,29,12,14,26.30
2021,06,29,12,15,26.40
2021,06,29,12,16,26.50
2021,06,29,12,17,26.40
2021,06,29,12,18,26.40
2021,06,29,12,19,26.40
2021,06,29,12,20,26.50
2021,06,29,12,21,26.70
2021,06,29,12,22,26.80
2021,06,29,12,23,26.90
2021,06,29,12,24,27.00
2021,06,29,12,25,27.00
2021,06,29,12,26,26.90
2021,06,29,12,27,26.80
2021,06,29,12,28,26.70
2021,06,29,12,29,26.70
2021,06,29,12,30,26.70
2021,06,29,12,31,26.80
2021,06,29,12,32,27.00
2021,06,29,12,33,27.10
2021,06,29,12,34,27.20
2021,06,29,12,35,27.30
2021,06,29,12,36,27.30
2021,06,29,12,37,27.30
2021,06,29,12,38,27.30
2021,06,29,12,39,27.20
2021,06,29,12,40,27.10
2021,06,29,12,41,27.20
2021,06,29,12,42,27.30
2021,06,29,12,43,27.30
2021,06,29,12,44,27.30
2021,06,29,12,45,27.40
2021,06,29,12,46,27.50
2021,06,29,12,47,27.60
2021,06,29,12,48,27.70
2021,06,29,12,49,27.80
2021,06,29,12,50,27.80
2021,06,29,12,51,27.80
2021,06,29,12,52,27.80
2021,06,29,12,53,27.90
2021,06,29,12,54,27.90
2021,06,29,12,55,28.10
2021,06,29,12,56,28.10
2021,06,29,12,57,28.00
2021,06,29,12,58,28.10
2021,06,29,12,59,28.10
2021,06,29,13,00,28.10
2021,06,29,13,01,28.10
2021,06,29,13,02,28.10
2021,06,29,13,03,28.10
2021,06,29,13,04,28.10
2021,06,29,13,05,28.10
2021,06,29,13,06,28.20
2021,06,29,13,07,28.30
2021,06,29,13,08,28.30
2021,06,29,13,09,28.40
2021,06,29,13,10,28.40
2021,06,29,13,11,28.50
2021,06,29,13,12,28.60
2021,06,29,13,13,28.80
2021,06,29,13,14,29.00
2021,06,29,13,15,29.00
2021,06,29,13,16,28.90
2021,06,29,13,17,28.80
2021,06,29,13,18,28.80
2021,06,29,13,19,28.90
2021,06,29,13,20,29.00
2021,06,29,13,21,29.10
2021,06,29,13,22,29.10
2021,06,29,13,23,29.20
2021,06,29,13,24,29.10
2021,06,29,13,25,28.90
2021,06,29,13,26,28.80
2021,06,29,13,27,28.70
2021,06,29,13,28,28.60
2021,06,29,13,29,28.40
2021,06,29,13,30,28.30
2021,06,29,13,31,28.20
2021,06,29,13,32,28.30
2021,06,29,13,33,28.20
2021,06,29,13,34,28.20
2021,06,29,13,35,28.10
2021,06,29,13,36,28.10
2021,06,29,13,37,28.10
2021,06,29,13,38,28.10
2021,06,29,13,39,28.20
2021,06,29,13,40,28.10
2021,06,29,13,41,27.90
2021,06,29,13,42,27.90
2021,06,29,13,43,27.80
2021,06,29,13,44,27.70
2021,06,29,13,45,27.70
2021,06,29,13,46,27.70
2021,06,29,13,47,27.80
2021,06,29,13,48,27.80
2021,06,29,13,49,27.60
2021,06,29,13,50,27.50
2021,06,29,13,51,27.40
2021,06,29,13,52,27.50
2021,06,29,13,53,27.60
2021,06,29,13,54,27.60
2021,06,29,13,55,27.60
2021,06,29,13,56,27.60
2021,06,29,13,57,27.60
2021,06,29,13,58,27.70
2021,06,29,13,59,27.80
2021,06,29,14,00,27.80
2021,06,29,14,01,27.90
2021,06,29,14,02,27.90
2021,06,29,14,03,28.10
2021,06,29,14,04,28.10
2021,06,29,14,05,28.10
2021,06,29,14,06,28.10
2021,06,29,14,07,28.10
2021,06,29,14,08,28.00
2021,06,29,14,09,28.00
2021,06,29,14,10,28.00
2021,06,29,14,11,28.20
2021,06,29,14,12,28.30
2021,06,29,14,13,28.40
2021,06,29,14,14,28.30
2021,06,29,14,15,28.20
2021,06,29,14,16,28.10
2021,06,29,14,17,28.00
2021,06,29,14,18,27.90
2021,06,29,14,19,27.80
2021,06,29,14,20,27.80
2021,06,29,14,21,27.90
2021,06,29,14,22,27.80
2021,06,29,14,23,27.70
2021,06,29,14,24,27.70
2021,06,29,14,25,27.70
2021,06,29,14,26,27.60
2021,06,29,14,27,27.50
2021,06,29,14,28,27.50
2021,06,29,14,29,27.50
2021,06,29,14,30,27.60
2021,06,29,14,31,27.70
2021,06,29,14,32,27.80
2021,06,29,14,33,27.80
2021,06,29,14,34,28.00
2021,06,29,14,35,28.10
2021,06,29,14,36,28.10
2021,06,29,14,37,28.10
2021,06,29,14,38,28.00
2021,06,29,14,39,27.90
2021,06,29,14,40,27.90
2021,06,29,14,41,27.80
2021,06,29,14,42,27.80
2021,06,29,14,43,27.80
2021,06,29,14,44,27.70
2021,06,29,14,45,27.60
2021,06,29,14,46,27.60
2021,06,29,14,47,27.60
2021,06,29,14,48,27.60
2021,06,29,14,49,27.50
2021,06,29,14,50,27.40
2021,06,29,14,51,27.40
2021,06,29,14,52,27.60
2021,06,29,14,53,27.70
2021,06,29,14,54,27.60
2021,06,29,14,55,27.70
2021,06,29,14,56,27.80
2021,06,29,14,57,27.90
2021,06,29,14,58,27.80
2021,06,29,14,59,27.70
2021,06,29,15,00,27.70
2021,06,29,15,01,27.60
2021,06,29,15,02,27.50
2021,06,29,15,03,27.40
2021,06,29,15,04,27.40
2021,06,29,15,05,27.40
2021,06,29,15,06,27.30
2021,06,29,15,07,27.30
2021,06,29,15,08,27.40
2021,06,29,15,09,27.60
2021,06,29,15,10,27.70
2021,06,29,15,11,27.70
2021,06,29,15,12,27.80
2021,06,29,15,13,27.80
2021,06,29,15,14,27.90
2021,06,29,15,15,28.00
2021,06,29,15,16,28.00
2021,06,29,15,17,28.00
2021,06,29,15,18,28.00
2021,06,29,15,19,28.10
2021,06,29,15,20,28.10
2021,06,29,15,21,28.10
2021,06,29,15,22,28.20
2021,06,29,15,23,28.30
2021,06,29,15,24,28.40
2021,06,29,15,25,28.50
2021,06,29,15,26,28.60
2021,06,29,15,27,28.70
2021,06,29,15,28,28.70
2021,06,29,15,29,28.70
2021,06,29,15,30,28.70
2021,06,29,15,31,28.70
2021,06,29,15,32,28.60
2021,06,29,15,33,28.60
2021,06,29,15,34,28.60
2021,06,29,15,35,28.60
2021,06,29,15,36,28.70
2021,06,29,15,37,28.80
2021,06,29,15,38,28.80
2021,06,29,15,39,28.90
2021,06,29,15,40,28.90
2021,06,29,15,41,28.90
2021,06,29,15,42,28.90
2021,06,29,15,43,29.00
2021,06,29,15,44,28.90
2021,06,29,15,45,28.70
2021,06,29,15,46,28.50
2021,06,29,15,47,28.50
2021,06,29,15,48,28.40
2021,06,29,15,49,28.30
2021,06,29,15,50,28.30
2021,06,29,15,51,28.30
2021,06,29,15,52,28.30
2021,06,29,15,53,28.30
2021,06,29,15,54,28.40
2021,06,29,15,55,28.60
2021,06,29,15,56,28.70
2021,06,29,15,57,28.70
2021,06,29,15,58,28.70
2021,06,29,15,59,28.60
2021,06,29,16,00,28.40
2021,06,29,16,01,28.30
2021,06,29,16,02,28.30
2021,06,29,16,03,28.20
2021,06,29,16,04,28.20
2021,06,29,16,05,28.20
2021,06,29,16,06,28.10
2021,06,29,16,07,28.10
2021,06,29,16,08,28.20
2021,06,29,16,09,28.20
2021,06,29,16,10,28.30
2021,06,29,16,11,28.30
2021,06,29,16,12,28.30
2021,06,29,16,13,28.30
2021,06,29,16,14,28.20
2021,06,29,16,15,28.20
2021,06,29,16,16,28.10
2021,06,29,16,17,28.10
2021,06,29,16,18,28.10
2021,06,29,16,19,28.20
2021,06,29,16,20,28.20
2021,06,29,16,21,28.30
2021,06,29,16,22,28.30
2021,06,29,16,23,28.30
2021,06,29,16,24,28.30
2021,06,29,16,25,28.30
2021,06,29,16,26,28.40
2021,06,29,16,27,28.50
2021,06,29,16,28,28.40
2021,06,29,16,29,28.40
2021,06,29,16,30,28.30
2021,06,29,16,31,28.20
2021,06,29,16,32,28.10
2021,06,29,16,33,28.00
2021,06,29,16,34,27.90
2021,06,29,16,35,27.90
2021,06,29,16,36,27.80
2021,06,29,16,37,27.80
2021,06,29,16,38,27.80
2021,06,29,16,39,27.90
2021,06,29,16,40,28.00
2021,06,29,16,41,28.10
2021,06,29,16,42,28.10
2021,06,29,16,43,28.20
2021,06,29,16,44,28.20
2021,06,29,16,45,28.20
2021,06,29,16,46,28.30
2021,06,29,16,47,28.40
2021,06,29,16,48,28.50
2021,06,29,16,49,28.60
2021,06,29,16,50,28.70
2021,06,29,16,51,28.70
2021,06,29,16,52,28.70
2021,06,29,16,53,28.60
2021,06,29,16,54,28.60
2021,06,29,16,55,28.50
2021,06,29,16,56,28.40
2021,06,29,16,57,28.30
2021,06,29,16,58,28.30
2021,06,29,16,59,28.20
2021,06,29,17,00,28.20
2021,06,29,17,01,28.20
2021,06,29,17,02,28.30
2021,06,29,17,03,28.30
2021,06,29,17,04,28.40
2021,06,29,17,05,28.50
2021,06,29,17,06,28.60
2021,06,29,17,07,28.60
2021,06,29,17,08,28.70
2021,06,29,17,09,28.80
2021,06,29,17,10,28.90
2021,06,29,17,11,29.00
2021,06,29,17,12,29.10
2021,06,29,17,13,29.20
2021,06,29,17,14,29.30
2021,06,29,17,15,29.40
2021,06,29,17,16,29.50
2021,06,29,17,17,29.60
2021,06,29,17,18,29.60
2021,06,29,17,19,29.50